Lapse_Rate
6.7 6.5 6.7 7.0 7.3 7.4 7.6 7.3 7.1 7.3 7.2 7.3 7.8 8.0 7.9 7.6 7.6 7.7 7.3 7.0 7.0 7.3 7.3 7.6 7.7 7.8 7.7 7.6 7.5 7.5 7.4 7.5 7.6 7.6 7.4 7.2 7.0 6.8 6.8 6.5 6.2 5.9 5.7 5.6 5.5 5.5 5.5 5.5 5.4
6.8 6.7 6.8 7.1 7.6 7.7 7.4 6.8 7.3 7.2 7.3 6.8 7.4 7.6 7.7 7.7 7.6 7.4 7.2 7.0 7.2 7.3 7.5 7.7 7.7 7.6 7.5 7.4 7.4 7.3 7.4 7.5 7.6 7.5 7.4 7.2 7.0 6.7 6.8 6.7 6.3 6.1 5.9 5.7 5.6 5.5 5.4 5.5 5.5
6.8 6.9 7.1 7.3 7.5 7.6 7.0 7.0 7.7 7.5 7.7 7.3 7.4 7.4 7.6 7.0 7.0 7.2 7.3 7.5 7.7 7.8 7.9 7.9 7.9 7.8 7.6 7.5 7.3 7.3 7.2 7.3 7.5 7.6 7.6 7.3 7.0 6.8 6.7 6.7 6.4 6.2 6.0 5.8 5.7 5.5 5.5 5.4 5.4
6.9 6.9 7.0 7.4 7.2 6.6 6.8 7.3 7.6 7.7 7.8 7.8 7.6 7.6 7.2 6.7 6.4 6.8 7.3 7.6 7.9 8.0 7.9 7.8 7.9 7.6 7.6 7.5 7.4 7.2 7.2 7.2 7.4 7.7 7.6 7.4 7.1 6.8 6.6 6.6 6.5 6.3 6.1 5.8 5.7 5.6 5.5 5.5 5.4
7.0 7.0 7.1 7.3 7.0 6.5 6.8 7.1 7.5 7.7 7.6 7.6 7.6 7.6 7.3 6.6 6.4 6.2 6.7 7.2 7.6 7.6 7.6 7.6 7.7 7.6 7.6 7.3 7.4 7.4 7.2 7.2 7.2 7.5 7.6 7.6 7.4 7.0 6.6 6.5 6.4 6.3 6.2 6.0 5.8 5.7 5.6 5.5 5.3
7.0 7.0 7.3 7.3 6.9 6.5 6.8 7.0 7.0 7.3 7.4 7.6 7.4 7.6 7.6 7.2 6.7 6.7 6.7 6.8 7.0 7.2 7.2 7.2 7.3 7.3 7.3 7.5 7.3 7.2 7.4 7.4 7.2 7.3 7.4 7.4 7.4 7.2 6.9 6.6 6.5 6.4 6.2 6.1 6.0 5.8 5.7 5.6 5.3
7.0 7.3 7.2 7.2 7.3 7.0 6.9 7.0 7.1 7.4 7.3 7.4 7.3 7.2 7.3 7.4 7.2 6.7 6.7 6.6 6.9 7.2 7.5 7.3 7.4 7.4 7.4 7.4 7.6 7.4 7.2 7.3 7.5 7.5 7.6 7.5 7.3 7.2 7.1 6.9 6.6 6.4 6.3 6.1 6.0 5.9 5.7 5.7 5.5
6.7 6.9 7.2 7.2 6.9 6.9 6.8 6.8 6.9 7.2 7.4 7.4 7.4 7.3 7.1 7.3 7.2 7.2 7.3 7.3 7.6 7.7 7.7 7.6 7.1 7.5 7.6 7.4 7.2 7.4 7.2 7.3 7.3 7.5 7.6 7.8 7.7 7.4 7.2 7.1 6.9 6.5 6.3 6.2 6.1 6.0 5.8 5.7 5.6
6.6 6.7 7.1 7.2 7.1 7.1 7.1 6.9 7.2 7.4 7.4 7.4 7.2 7.0 6.8 6.5 6.8 7.2 7.7 7.8 7.5 7.3 7.3 7.3 7.0 6.8 7.2 7.3 7.5 7.6 7.2 7.0 7.0 7.0 7.1 7.4 7.6 7.6 7.5 7.2 7.0 6.7 6.5 6.3 6.3 6.1 6.1 5.8 5.6
6.4 6.8 6.6 6.7 6.7 6.7 7.1 7.4 7.5 7.5 7.4 7.2 7.3 7.2 6.7 6.7 6.9 6.8 6.8 7.1 7.4 7.5 7.3 7.0 7.0 6.8 6.9 7.2 7.2 7.3 7.7 7.4 7.2 7.1 6.8 7.0 7.2 7.4 7.4 7.3 7.1 6.9 6.6 6.5 6.4 6.3 6.1 6.0 5.8
6.5 6.7 6.4 6.4 6.2 6.5 6.9 7.0 7.2 7.0 7.4 7.0 7.2 7.0 6.8 6.8 6.4 6.6 6.7 6.6 6.9 6.9 7.0 7.1 6.8 6.7 6.6 6.7 7.2 7.0 7.3 7.4 7.4 6.9 6.8 7.0 7.1 7.1 7.3 7.4 7.4 7.2 6.9 6.7 6.6 6.4 6.2 6.0 5.9
6.2 6.4 6.5 6.8 6.5 6.5 6.7 6.9 6.9 6.9 6.8 6.5 6.4 6.7 6.9 6.9 7.1 7.4 7.2 6.5 5.9 6.2 6.4 6.5 6.4 6.1 6.2 6.1 6.3 6.7 6.8 7.0 6.8 7.2 7.0 6.9 6.8 7.1 7.3 7.4 7.5 7.4 7.1 6.7 6.6 6.6 6.3 6.1 6.0
6.3 6.4 6.4 6.3 6.4 6.4 6.4 6.5 6.5 6.6 6.1 6.1 6.0 6.1 6.3 6.5 6.8 7.0 6.9 6.5 6.3 6.0 5.9 6.2 6.5 6.3 6.1 6.1 6.1 6.2 6.1 6.5 6.8 6.8 7.1 7.1 7.1 7.1 7.1 7.2 7.3 7.4 7.2 6.9 6.7 6.6 6.5 6.4 6.1
6.4 6.5 6.4 6.5 6.5 6.2 6.1 6.4 6.2 6.2 5.9 5.8 5.8 5.9 5.9 6.1 6.2 6.2 6.3 6.2 6.1 5.9 5.9 6.0 6.1 6.2 6.4 6.4 6.3 6.1 6.2 6.1 6.5 6.6 6.6 6.9 7.0 6.9 7.2 7.2 7.2 7.4 7.4 7.0 6.7 6.5 6.4 6.3 6.1
6.4 6.6 6.7 6.4 6.8 6.7 6.4 6.5 6.6 5.9 6.0 5.7 5.8 5.9 6.0 6.0 6.0 5.9 6.1 6.1 6.0 5.9 5.9 6.0 6.0 6.0 5.9 6.0 6.1 6.2 6.2 6.0 6.1 6.4 6.5 6.8 7.0 7.0 6.7 7.2 7.2 7.5 7.4 7.2 6.8 6.5 6.4 6.4 6.3
6.3 6.3 6.7 6.3 6.5 6.5 6.1 6.5 6.1 5.9 5.8 5.9 5.9 5.8 5.8 5.8 5.9 6.1 6.1 6.2 6.1 5.8 5.9 5.9 5.8 5.9 5.9 5.9 5.9 6.1 6.2 6.3 6.2 6.0 6.4 6.5 6.7 7.1 7.0 6.4 7.1 7.3 7.3 7.3 7.0 6.6 6.6 6.5 6.6
6.1 6.1 6.1 6.3 6.3 6.3 6.0 6.1 6.0 5.9 5.9 6.0 5.9 5.9 5.9 5.9 6.2 6.2 6.3 6.2 6.0 5.8 5.7 5.8 5.8 5.8 5.9 6.4 6.4 6.4 6.7 6.7 6.4 6.3 6.1 6.3 6.6 6.7 7.2 6.8 6.2 7.0 6.9 7.2 7.1 6.8 6.6 6.6 6.6
5.7 5.4 5.6 5.7 6.2 6.1 6.0 6.0 5.8 5.8 5.9 6.0 5.9 5.9 6.0 6.4 6.5 6.4 6.1 5.9 5.8 5.7 5.7 5.8 6.2 6.8 7.1 7.3 7.6 7.8 7.8 7.7 7.4 6.6 6.4 6.0 6.3 6.7 6.5 7.2 6.7 6.0 6.7 6.7 6.8 6.8 6.6 6.7 6.6
5.5 5.4 5.3 5.8 6.2 5.8 5.9 5.8 5.8 5.7 5.9 5.9 6.1 6.2 6.5 6.6 6.5 6.4 6.2 6.0 6.0 6.1 6.5 7.1 7.4 7.5 7.6 7.6 7.7 8.0 8.1 8.2 8.3 7.7 6.7 6.4 6.0 6.4 6.8 6.3 6.8 6.4 6.2 7.0 6.7 6.8 6.8 6.6 6.4
5.5 5.5 5.8 5.9 6.1 6.1 6.1 6.1 6.1 6.0 6.2 6.4 6.4 6.5 6.5 6.4 6.4 6.2 6.1 6.2 6.6 6.9 7.3 7.6 7.6 7.5 7.4 7.4 7.3 7.0 6.9 7.2 7.6 8.0 7.7 6.6 6.2 6.0 6.2 6.8 6.9 5.8 6.0 6.4 6.6 6.8 6.9 6.6 6.3
5.8 5.6 5.8 5.9 6.0 6.3 6.4 6.1 6.2 6.4 6.4 6.6 6.5 6.5 6.5 6.4 6.3 6.4 6.7 6.9 7.0 7.3 7.3 7.4 7.2 6.6 6.6 6.7 6.8 6.8 6.9 6.9 7.0 7.3 7.5 7.0 6.4 5.8 6.0 6.4 6.3 6.1 6.0 6.1 6.4 6.8 6.9 6.8 6.3
5.5 6.4 6.2 6.2 6.2 6.1 6.1 5.4 6.1 6.2 6.2 6.6 6.6 6.6 6.3 6.2 6.2 6.5 6.7 7.0 7.0 7.0 7.1 6.9 6.8 6.6 6.8 7.0 6.9 6.8 7.1 7.2 7.2 6.9 7.0 6.8 6.6 6.1 5.7 5.8 6.4 6.1 5.6 5.0 6.4 6.5 6.9 6.8 6.7
6.3 6.5 6.8 6.8 6.8 6.7 6.3 6.4 6.3 6.1 6.3 6.6 6.5 6.2 6.1 6.3 6.4 6.6 6.8 6.7 7.1 6.7 6.5 6.5 6.8 6.5 6.9 6.7 6.9 6.7 6.8 7.1 7.3 7.1 6.7 6.6 6.7 6.1 5.6 5.4 5.9 5.9 6.3 5.6 5.6 6.5 6.4 6.8 6.7
7.2 7.1 7.2 7.0 7.1 6.0 7.0 6.9 6.4 6.2 6.5 6.4 6.2 6.0 6.2 6.5 6.7 6.8 6.3 6.9 6.6 6.2 6.1 6.1 6.5 7.0 7.0 6.7 6.2 5.8 6.5 6.7 6.4 6.6 6.8 6.9 6.6 6.5 5.8 5.3 5.3 6.1 6.1 5.6 5.6 6.5 6.5 6.7 6.8
7.7 7.3 7.1 6.6 5.8 6.0 6.9 6.8 6.8 6.8 6.8 6.6 6.4 6.2 6.3 6.8 6.5 6.3 6.7 6.9 6.6 6.3 6.0 6.1 6.5 6.6 7.0 6.9 6.3 5.7 5.8 6.3 6.5 5.8 6.4 6.7 6.6 6.8 6.3 5.6 5.1 5.7 5.6 5.6 5.6 5.1 6.6 6.5 6.5
7.7 7.9 7.6 6.6 5.8 6.2 7.1 6.9 7.1 7.5 7.5 6.9 6.5 6.5 6.7 6.4 6.3 6.2 6.5 6.6 5.7 5.5 5.3 5.6 5.9 6.4 6.6 6.4 5.7 4.9 4.9 5.4 5.2 5.1 5.1 6.1 6.1 6.7 6.5 5.8 5.6 5.2 5.5 5.8 5.2 4.9 5.7 6.5 6.5
7.6 7.7 8.0 7.9 7.6 6.4 6.8 7.0 7.4 7.7 7.4 7.1 6.5 6.4 6.3 6.2 5.8 6.2 6.3 5.9 5.1 5.2 4.8 4.8 5.2 5.7 5.5 5.6 4.8 4.2 4.3 4.6 4.7 5.3 4.9 5.2 5.7 6.1 6.3 6.2 5.7 5.4 5.3 4.9 6.1 5.1 5.4 6.1 6.4
7.8 7.1 7.3 6.7 6.4 6.6 5.9 6.6 7.4 7.7 7.2 6.7 6.6 6.2 5.9 5.7 5.7 6.1 5.9 5.5 4.8 4.9 4.6 4.4 4.6 4.7 4.7 4.7 4.6 4.2 4.1 4.8 5.6 5.8 5.5 5.6 6.1 6.2 6.3 6.6 5.6 5.6 6.1 5.3 5.1 5.3 5.2 5.5 6.4
7.2 7.3 7.0 7.4 7.8 6.3 5.2 6.6 8.0 7.3 7.0 6.6 6.4 6.2 6.2 5.7 5.9 6.0 5.7 5.5 5.0 4.9 4.7 4.7 4.4 4.4 4.8 4.7 4.6 4.8 4.9 5.6 6.1 6.4 5.8 6.2 6.5 6.4 6.4 6.4 6.2 5.9 6.0 5.8 5.3 5.6 5.0 5.0 6.2
6.6 6.6 6.5 6.9 7.5 7.4 6.8 6.6 7.7 7.4 7.0 6.5 6.1 5.9 5.9 6.0 5.9 5.8 5.5 5.6 5.5 5.4 5.2 4.9 4.5 4.4 4.5 4.7 4.1 4.6 5.4 6.1 5.8 6.0 6.2 6.0 5.9 6.4 6.9 6.6 6.5 6.3 6.1 5.9 6.2 6.8 6.3 5.5 5.2
Wind_Speed
12 14 0 4 4 5 4 4 3 7 10 6 11 12 11 6 5 5 7 8 2 4 6 7 6 5 6 6 5 5 6 8 10 12 14 15 16 18 20 20 19 17 17 17 16 14 13 10 9
8 4 4 2 4 3 4 5 9 4 4 4 9 4 9 5 4 2 6 12 5 4 5 5 5 5 5 4 5 5 5 7 8 9 12 13 14 16 19 19 19 18 17 16 15 13 13 12 11
3 2 3 4 3 3 2 4 9 5 5 3 5 6 4 3 5 2 7 6 4 5 5 4 4 6 5 6 4 4 5 6 8 9 10 12 12 14 16 18 18 17 16 15 14 13 12 13 12
4 4 4 4 3 2 3 8 6 6 8 10 8 7 4 5 3 5 9 6 4 3 5 6 6 5 5 3 5 5 6 6 7 8 9 11 11 11 13 16 16 15 15 14 12 12 12 11 12
4 3 4 3 1 2 2 4 6 11 4 9 3 5 5 4 5 5 7 7 5 4 2 4 6 6 6 6 6 6 6 7 7 8 9 10 11 11 13 14 14 14 14 13 12 13 13 12 11
4 3 4 1 2 5 0 5 3 7 5 6 7 4 3 5 1 2 2 7 6 6 7 6 5 6 6 5 5 7 7 8 8 8 8 9 11 12 13 14 14 14 14 13 14 14 14 13 11
6 4 2 2 4 1 4 3 5 3 5 7 2 3 2 6 8 8 9 10 10 14 16 13 11 11 12 13 10 8 7 8 10 10 11 11 11 13 14 14 14 14 14 14 14 14 14 13 13
5 4 2 2 0 1 5 3 2 6 3 5 4 3 2 4 8 10 10 13 14 16 15 15 23 22 17 13 12 15 11 9 10 12 13 14 14 14 15 15 15 15 16 15 15 15 14 13 13
3 4 1 4 5 3 1 2 4 2 2 2 4 3 2 5 13 16 11 14 14 14 15 16 17 21 23 20 15 13 14 14 12 10 12 12 10 13 14 15 17 17 17 17 16 16 16 15 13
4 4 6 4 3 2 3 3 3 1 5 1 2 4 16 16 9 14 13 11 15 16 14 14 14 14 20 19 21 18 13 9 9 9 10 11 12 11 12 14 19 19 19 19 18 18 17 15 11
3 4 4 4 4 3 1 2 3 2 1 6 5 7 9 12 13 12 11 10 9 9 10 14 14 16 15 13 15 15 16 10 7 9 10 10 10 11 10 9 11 11 16 10 13 12 9 9 8
4 5 1 5 4 2 3 2 5 3 6 9 13 9 10 14 13 12 12 13 16 15 13 13 12 11 14 15 11 11 8 15 7 11 13 9 5 7 8 6 10 11 11 9 10 8 10 8 10
3 4 8 6 9 6 3 5 3 7 9 15 15 15 14 13 11 11 11 11 13 17 18 15 14 13 13 11 11 10 7 8 16 15 16 16 8 9 8 9 8 10 13 10 8 8 8 6 7
5 6 8 8 7 5 5 3 3 5 15 15 15 12 12 13 11 11 14 14 15 14 16 17 15 13 16 12 12 9 12 12 13 15 16 18 16 10 9 10 9 9 13 14 10 10 8 7 6
6 7 8 5 4 2 7 1 7 12 15 13 10 9 11 12 11 13 12 12 13 12 14 16 17 18 14 13 11 11 13 14 8 10 20 20 17 13 13 10 11 11 14 14 9 7 5 5 5
5 4 5 5 5 5 4 7 11 6 15 9 9 9 10 11 11 10 11 11 12 13 15 15 14 14 16 14 11 10 14 13 11 13 15 21 18 18 15 12 11 10 9 10 9 8 8 7 7
5 2 2 9 6 3 3 4 4 8 12 10 9 8 9 9 11 10 13 12 13 13 15 14 15 15 15 15 13 12 14 10 11 13 12 16 19 17 12 11 12 11 11 10 10 9 9 8 7
3 4 4 5 5 4 2 4 2 7 11 8 7 8 10 11 12 12 13 13 13 13 14 14 13 15 16 12 11 10 10 9 11 9 9 17 13 17 11 11 13 12 11 11 10 12 9 8 9
5 4 6 8 10 1 4 3 3 4 7 8 7 8 9 11 9 12 13 13 14 15 16 16 17 16 13 11 12 11 11 11 11 10 14 13 14 14 14 10 13 14 13 15 14 10 11 6 7
7 9 10 7 5 3 5 2 4 3 4 4 6 9 11 14 15 15 16 16 15 16 16 17 16 16 14 11 12 12 12 12 11 12 14 15 13 13 9 10 11 12 12 16 15 14 8 8 9
9 6 5 8 2 3 2 3 5 3 5 6 7 5 7 11 14 16 16 16 15 16 16 16 16 17 17 18 12 12 12 12 12 12 10 11 11 11 11 11 10 12 15 12 15 15 15 11 7
7 8 9 5 1 3 3 5 5 6 5 5 6 7 9 12 10 13 15 16 15 15 15 19 19 20 16 18 15 17 14 15 13 13 12 12 12 11 11 10 9 7 7 15 14 14 14 11 11
7 3 4 3 4 2 4 2 2 7 5 3 8 9 10 10 12 15 16 15 15 16 18 16 20 18 18 18 17 14 16 13 11 12 17 17 14 13 12 11 8 7 6 6 12 13 14 11 10
6 1 4 3 2 2 8 7 3 3 1 3 5 7 10 12 12 13 14 14 15 17 17 19 20 18 17 17 17 16 17 16 13 13 13 12 10 10 10 8 7 5 4 12 14 14 17 14 12
4 5 3 4 2 5 4 1 3 4 1 1 4 6 8 8 11 13 16 17 18 20 19 17 19 20 21 20 18 16 16 17 17 14 11 12 10 9 8 8 6 3 5 7 13 12 14 15 13
5 7 5 6 3 4 4 4 3 3 5 3 3 5 6 10 11 13 14 14 16 18 18 18 18 20 19 21 21 17 17 11 11 12 12 11 10 9 9 7 5 6 6 6 5 10 12 14 14
4 2 3 3 1 1 3 3 3 6 3 2 4 6 7 8 10 12 13 12 15 16 17 16 17 20 18 19 17 17 15 14 13 16 13 10 10 11 9 4 2 3 9 11 13 9 12 14 15
3 4 2 3 3 4 3 3 4 9 6 2 2 4 6 7 10 12 12 13 12 13 14 15 16 17 18 19 15 15 16 15 14 14 16 14 7 6 6 6 4 5 6 3 8 9 12 13 9
4 3 3 3 4 3 2 5 3 6 5 5 2 3 3 6 8 9 11 11 10 12 13 14 16 18 18 17 16 17 17 18 16 16 16 15 10 10 9 8 6 9 13 12 2 16 15 15 10
4 2 3 3 3 1 3 5 1 5 6 4 3 3 2 3 5 7 9 10 10 12 15 15 16 17 17 16 16 17 18 20 20 19 19 17 14 12 13 12 10 12 14 16 19 16 11 17 13
Wind_Direction
325 321 34 44 58 65 298 307 260 344 341 360 50 79 96 50 44 122 285 336 31 116 139 149 147 140 132 132 134 129 117 115 123 128 131 134 137 137 135 136 137 139 144 150 149 146 141 146 152
322 324 37 65 95 77 281 272 303 342 276 204 70 32 48 67 32 63 354 335 77 129 141 143 139 127 115 124 148 156 151 137 137 140 139 142 144 146 141 144 144 148 149 153 157 155 149 152 149
290 41 79 90 79 145 227 284 282 270 335 73 98 45 59 358 1 51 316 322 85 115 134 130 148 137 138 143 157 171 180 166 163 156 154 150 153 154 150 149 151 153 153 158 160 156 151 153 147
25 10 32 79 159 249 0 304 320 321 12 37 114 66 58 349 50 358 323 341 41 111 151 166 177 166 153 154 166 182 192 195 184 178 173 161 161 163 160 157 156 156 155 159 160 150 157 161 152
38 44 46 51 310 300 49 333 14 39 32 4 6 96 85 17 345 333 334 357 22 8 36 186 202 205 191 189 181 188 197 204 202 201 197 180 172 173 175 170 165 162 159 159 161 161 164 170 164
51 96 33 295 291 292 288 4 29 35 22 16 67 65 65 304 327 296 84 35 17 32 356 340 316 299 274 247 221 196 201 209 207 214 220 212 191 188 187 183 176 169 165 163 162 166 170 171 171
109 89 210 262 280 297 355 302 34 16 10 14 336 75 202 351 332 352 22 38 31 30 20 2 4 347 333 318 292 258 221 210 212 214 217 221 213 205 200 193 185 177 171 168 168 170 176 176 172
99 89 125 197 155 323 343 22 10 35 358 318 8 67 314 264 7 14 28 26 35 34 26 19 17 6 341 322 313 295 268 241 222 218 217 220 215 215 212 204 196 186 178 174 173 175 178 182 176
116 58 206 221 163 206 303 93 328 233 45 338 17 136 258 27 34 36 19 15 20 22 22 13 10 4 2 355 326 296 278 263 247 239 231 222 217 209 211 209 204 193 185 181 178 181 181 183 179
86 123 222 228 193 215 186 173 214 89 338 280 332 4 63 59 52 53 34 17 14 14 10 9 4 359 359 358 350 332 298 270 259 242 227 226 223 210 201 207 210 202 191 186 183 184 184 179 179
8 192 213 265 277 275 217 239 214 165 214 223 247 71 53 63 47 49 43 32 7 359 12 6 360 360 360 352 349 351 333 300 266 252 245 220 223 219 205 199 207 203 196 185 183 179 174 188 180
337 250 252 293 2 311 283 296 306 184 239 44 77 87 71 54 46 38 29 16 6 5 5 3 358 358 358 349 347 340 344 333 296 270 230 233 217 215 214 210 200 201 194 188 180 177 189 190 193
208 338 323 282 282 249 269 261 271 272 37 79 77 63 61 58 42 35 27 17 6 4 354 359 356 359 351 348 342 338 332 327 326 297 262 234 225 222 210 213 203 202 199 192 189 194 193 188 187
311 291 278 270 234 215 206 240 155 37 94 74 69 64 59 55 40 29 23 13 10 360 352 346 349 354 347 343 338 330 322 314 317 309 285 264 250 230 217 206 205 204 202 199 193 194 192 190 184
288 309 322 314 311 173 145 348 217 97 88 80 67 65 60 48 37 33 14 8 1 356 347 348 343 342 343 339 333 325 315 313 304 302 300 281 266 242 223 213 205 208 202 200 198 186 179 175 183
332 24 343 301 357 349 68 266 22 94 97 70 49 36 41 39 28 22 9 4 358 348 347 341 340 335 335 333 324 317 312 305 298 298 304 302 271 255 235 221 213 204 201 196 196 194 190 196 188
359 297 303 318 360 94 86 279 333 17 83 66 39 24 22 14 17 10 2 359 354 345 340 339 339 337 332 322 318 312 306 298 296 294 294 294 301 275 233 229 220 199 198 198 196 196 192 193 193
330 332 312 272 289 21 267 256 46 38 71 63 36 20 14 7 3 354 354 353 347 341 339 338 337 332 329 321 314 309 303 297 299 292 289 290 298 304 256 220 225 206 198 203 196 196 194 191 191
282 250 256 267 269 267 236 227 123 69 56 44 27 13 5 1 340 349 350 348 344 346 343 341 337 334 330 327 324 316 307 303 298 292 289 290 292 289 291 236 215 213 201 199 197 194 193 186 183
252 260 271 256 259 202 277 180 153 128 80 77 37 15 1 351 353 351 349 349 347 340 340 335 332 329 327 319 313 306 301 299 294 290 284 280 274 282 294 262 226 224 205 196 184 191 186 195 185
248 236 239 246 296 271 245 230 174 107 124 74 47 18 2 354 346 345 346 345 343 340 335 331 330 327 325 321 311 303 296 294 298 295 294 288 284 295 295 296 270 232 209 200 191 189 187 190 189
269 231 248 246 97 250 127 276 221 167 141 74 26 8 0 356 345 342 344 345 337 335 334 338 334 329 324 315 311 305 297 295 292 289 286 286 286 288 287 285 301 266 266 221 203 186 194 189 192
251 264 243 234 233 247 214 88 298 139 198 16 14 6 359 356 345 344 345 332 333 341 341 336 333 330 322 322 314 303 297 289 287 286 282 281 281 279 273 269 263 250 263 288 202 188 192 193 194
250 270 334 21 132 272 230 172 264 201 302 322 354 1 354 353 347 343 332 337 343 344 343 342 336 327 323 323 315 310 299 293 290 283 280 278 273 272 255 257 257 246 229 221 290 205 192 195 200
161 83 316 323 359 233 188 159 256 171 123 65 346 356 344 344 351 338 340 346 346 346 344 339 337 334 334 330 326 325 314 302 296 293 280 264 266 258 245 230 229 218 205 218 261 259 198 195 197
213 187 177 230 223 261 279 246 261 150 135 104 27 11 347 352 354 341 339 341 343 341 341 336 335 340 338 339 340 337 327 322 310 304 288 268 263 254 248 211 225 226 179 171 249 262 234 202 196
324 281 261 289 345 37 225 317 186 162 164 57 5 10 354 354 341 338 335 338 347 340 339 339 339 345 344 342 343 341 339 336 336 325 311 293 257 237 224 146 242 245 238 191 171 246 291 204 199
119 256 329 1 291 248 273 264 244 208 222 312 334 11 344 349 348 349 334 327 344 335 339 343 346 349 347 347 348 354 346 346 359 350 340 329 357 48 76 69 21 19 23 302 199 195 248 202 198
19 313 341 229 166 214 242 254 189 192 182 209 219 68 342 325 357 332 327 316 340 337 343 351 353 354 353 350 356 360 360 0 11 12 355 347 356 42 59 51 60 69 57 24 116 219 203 229 202
174 167 70 252 255 148 164 266 53 143 168 171 175 123 278 347 339 320 318 311 352 352 350 356 358 358 356 351 2 5 9 12 16 14 8 353 3 45 56 49 52 65 70 61 57 51 66 53 29